{"data":{"norad_id":62953,"intl_designator":"2025-029F","name":"STARLINK-32884","alt_names":[],"object_type":"PAYLOAD","status":"ACTIVE","operator":null,"country":"US","launch_date":"2025-02-11","launch_site_code":"AFWTR","launch_vehicle":null,"mission":null,"orbit_class":"UNKNOWN","rcs_meters":null,"size_class":null,"mass_kg":null,"dimensions":null,"purposes":["comms"],"wikipedia_slug":null,"has_3d_model":false,"image_url":null,"decayed_at":null,"tle_current":{"epoch":"2026-05-24T23:27:13.053024Z","epoch_age_seconds":76730,"freshness":"FRESH","line1":"1 62953U 25029F   26144.97723441  .00021274  00000+0  63902-3 0  9995","line2":"2 62953  53.1601 235.5511 0001116  70.6084 289.5039 15.34398333 73041","mean_motion":15.34398333,"eccentricity":0.0001116,"inclination_deg":53.1601,"raan_deg":235.5511,"arg_perigee_deg":70.6084,"mean_anomaly_deg":289.5039,"bstar":0.00063902,"rev_number":7304,"period_min":93.847860039353,"perigee_km":461.94475656315,"apogee_km":463.47163321065,"semimajor_km":6840.8451948869,"source":"CELESTRAK","updated_at":"2026-05-25T13:38:19.825013Z"}}}